Location: Bastelaar
(51.0950°N, 3.8602°E)
Time: 16:28:29
(UTC+00:00)

Cosmos 2251 Rocket - Pass Details

Date: 18 November 2025
Orbit: 760 x 788 km, 74.0° (Epoch: 09 December)

Event Time Altitude Azimuth Distance (km) Brightness Sun altitude
Rises 17:26:51 0° 188° (S) 3,233 7.0 -14.5°
Reaches altitude 10° 17:29:14 10° 184° (S) 2,315 6.2 -14.9°
Maximum altitude 17:34:22 55° 108° (ESE) 937 3.6 -15.7°
Enters shadow 17:38:34 16° 34° (NE) 1,984 5.2 -16.3°
